    Observer details:
    300 Bisei Spaceguard Center--BATTeRS.  Observers S. Okumura, N. Hashimoto.
        1.0-m f/3.0 reflector + CCD.
    587 Sormano.  Observers F. Manca, A. Testa.  Measurer F. Manca.  0.5-m f/6.8
        reflector + CCD.
    595 Farra d'Isonzo.  Observer E. Pettarin.  0.40-m f/4.5 reflector + CCD.
    703 Catalina Sky Survey.  Observers A. Boattini, R. E. Hill.  Measurers
        A. Boattini, E. J. Christensen, A. R. Gibbs, A. D. Grauer, R. E. Hill,
        J. A. Johnson, R. A. Kowalski, S. M. Larson, F. C. Shelly.  0.68-m Schmidt
        + CCD.
    850 Cordell-Lorenz Observatory, Sewanee.  Observers D. T. Durig, C. A. Boclair,
        A. R. Schmidt, T. M. Brown.  0.30-m f/2.8 Schmidt-Cassegrain
        + 765x510 CCD, 0.30-m f/5 Schmidt-Cassegrain + 1530x1020 CCD.
    932 John J. McCarthy Obs., New Milford.  Observers M. Polansky, M. Robson.
        0.4-m f/5 Schmidt-Cassegrain + CCD.
    B14 Ca del Monte.  Observer G. Galli.  0.24-m f/6.3 Schmidt-Cassegrain + CCD.
    C77 Bernezzo Observatory.  Observer A. Mantero.  0.25-m f/4 reflector + CCD.
    H21 Astronomical Research Observatory, Westfield.  Observer R. Holmes.
        Measurers T. Vorobjov, L. Buzzi, S. Foglia, T. Linder.  0.61-m f/4.5
        astrograph + CCD, 0.81-m f/4.0 astrograph + CCD.
    H36 Sandlot Observatory, Scranton.  Observer G. Hug.  0.56-m reflector + CCD.
    I48 Observatorio El Catalejo, Santa Rosa.  Observer J. Spagnotto.  0.20-m f/5
        reflector + CCD.
    I93 St Pardon de Conques.  Observer F. Losse.  0.40-m f/3.7 reflector + CCD.
    J95 Great Shefford.  Observer P. Birtwhistle.  0.40-m f/6.0 Schmidt-Cassegrain
        + CCD.
    K38 M57 Observatory, Saltrio.  Observer G. Baj.  0.13-m f/8 refractor + CCD.
    
    Orbital elements:
    2013 RT73                                                Earth MOID = 0.0182 AU
    Epoch 2013 Nov. 4.0 TT = JDT 2456600.5                  MPC
    M   9.82732              (2000.0)            P               Q
    n   0.27530525     Peri.   19.86631     +0.98630969     -0.16427535
    a   2.3402363      Node   349.55762     +0.13853496     +0.87274223
    e   0.5680035      Incl.    4.55074     +0.08944972     +0.45971144
    P   3.58           H   24.7           G   0.15           U   6
    Residuals in seconds of arc
    130913 703  0.1-  0.1+    130913 587  0.3+  0.0     130914 H36  0.6+  0.4+
    130913 703  0.2+  0.0     130913 587  0.5+  0.7+    130914 703  0.2-  0.2+
    130913 703  0.3-  0.1-    130913 587  0.5+  1.0+    130914 J95  0.4-  0.1+
    130913 703  0.3-  0.2-    130913 K38 (1.5-  2.0-)   130914 J95  0.3-  0.5-
    130913 703  0.3-  0.3-    130914 K38  0.7-  1.3-    130914 J95  0.7-  0.1+
    130913 703  0.5-  0.3-    130914 B14  0.0   0.1-    130915 H21  0.2-  0.3-
    130913 703  0.1-  0.3+    130914 B14  0.2+  0.4+    130915 H21  0.1+  0.2-
    130913 703  0.4-  0.4-    130914 B14  0.0   0.0     130915 H21  0.0   0.3-
    130913 703  0.3+  0.3+    130914 I48  0.4-  0.3-    130915 H21  0.2-  0.0
    130913 703  0.0   0.2+    130914 I48  0.5-  0.7-    130915 H21  0.1-  0.5-
    130913 703  0.2-  0.2-    130914 I48  0.1-  0.4+    130915 932  0.3+  0.4-
    130913 703  0.2-  0.2+    130914 I48  0.6-  0.2-    130915 932  0.9+  0.1-
    130913 300  0.4+  0.2+    130914 I48  0.3-  0.8+    130915 932  0.5+  0.1+
    130913 300  0.1-  0.2+    130914 H21  0.1+  0.1-    130915 932  0.3+  0.3-
    130913 300  0.1-  0.0     130914 H21  0.0   0.1-    130915 932  0.7+  0.2-
    130913 300  0.3+  0.1+    130914 H21  0.0   0.2-    130915 850  0.5+  0.1+
    130913 300  0.5+  0.1+    130914 H21  0.1+  0.1-    130915 850  0.4+  0.4+
    130913 595  0.3-  0.4-    130914 H21  0.2+  0.1-    130915 850  0.0   0.5+
    130913 595  0.6-  0.7-    130914 H21  0.2+  0.2-    130915 850  0.5+  0.5+
    130913 595  0.5-  0.5-    130914 850  0.1-  0.0     130915 850  0.3+  0.3+
    130913 C77  0.2+  0.2-    130914 850  0.5+  0.0     130915 850  1.0-  0.8-
    130913 C77  0.2+  0.2-    130914 850  0.3+  0.4+    130915 850  0.2-  0.8+
    130913 C77  1.1+  1.1-    130914 850  0.6+  0.4+    130915 850  0.5+  0.1+
    130913 C77  0.2+  0.6-    130914 850  0.0   0.2+    130915 703  0.2-  0.1+
    130913 C77  0.1+  0.3-    130914 850  0.1+  0.0     130915 703  0.2-  0.4+
    130913 587  0.2-  0.1-    130914 850  0.4+  0.3-    130915 703  0.2+  0.3-
    130913 587  0.0   0.1+    130914 703  0.8+  0.7+    130915 703  0.2+  0.4+
    130913 587  0.4+  0.9+    130914 703  0.1-  0.6+    130915 J95  0.0   0.3+
    130913 587  0.4+  0.7+    130914 H36  0.3+  0.3+    130915 J95  0.0   0.0
    130913 587  0.7-  0.5-    130914 H36  0.1+  0.1+    130915 J95  0.2+  0.0
    130913 587 (1.1+  1.8+)   130914 H36  0.2+  0.4+    130915 I93  0.2-  0.5-
    130913 587  0.0   0.0     130914 H36  0.2+  0.1-    130915 I93  0.1-  0.3-
    130913 587  0.7+  0.8+    130914 703  0.1-  0.3+    130915 I93  0.4-  0.3-
    
    Ephemeris:
    2013 RT73                a,e,i = 2.34, 0.57, 5                   q = 1.0110
    Date    TT    R. A. (2000) Decl.     Delta      r     Elong.  Phase     V
    2013 08 17    20 35 00.0 -35 51 50   0.1517  1.1492   152.6    23.9    22.0
    ...
    2013 09 01    20 54 46.2 -32 40 34   0.07697 1.0736   145.5    32.2    20.6
    ...
    2013 09 09    21 41 09.4 -23 05 44   0.04121 1.0439   152.3    26.6    19.1
    ...
    2013 09 15    23 32 15.2 +07 37 25   0.02228 1.0276   169.3    10.5    17.2
    2013 09 16    00 05 28.7 +16 43 45   0.02134 1.0254   159.1    20.5    17.4
    2013 09 17    00 43 32.9 +25 48 03   0.02142 1.0233   147.7    31.6    17.8
    ...
    2013 09 23    04 22 51.4 +48 55 13   0.03756 1.0142   105.6    72.3    20.1
    ...
    2013 10 01    06 06 04.4 +48 22 17   0.07104 1.0112    96.1    79.9    21.8
    ...
    2013 10 16    06 50 14.9 +46 01 44   0.1345  1.0335   102.1    70.6    22.9
    
    A. U. Tomatic                (C) Copyright 2013 MPC           M.P.E.C. 2013-S02
    

    Read MPEC 2013-S01 Read MPEC 2013-S03


    MPEC number:

    Enter an MPEC number in one of the following forms:

    • 1997-B01 (the full form)
    • J97B01 (the packed version of the full form)
    • B01 (the abbreviated form)